Location: Fort Wayne
(41.1310°N, 85.1290°W)
Time: 14:42:43
(UTC-04:00)

Courier 1B Rocket - All Passes

Search period start: 17 October 2017 00:00
Search period end: 27 October 2017 00:00
Orbit: 921 x 1202 km, 28.2° (Epoch: 16 October)

Date Brightness Start Highest point End Pass type
(mag) Time Alt. Az. Time Alt. Az. Time Alt. Az.
17 Oct - 15:40:10 10° SSW 15:44:15 18° SSE 15:48:27 10° ESE daylight
17 Oct - 17:31:35 10° SW 17:36:44 26° S 17:42:09 10° ESE daylight
17 Oct - 19:24:25 10° WSW 19:29:22 22° SSW 19:34:33 10° SE visible
17 Oct - 21:19:51 10° SW 21:21:55 11° SSW 21:24:01 10° S visible
18 Oct - 14:40:30 10° S 14:43:37 14° SSE 14:46:44 10° SE daylight
18 Oct - 16:31:05 10° SW 16:36:00 24° S 16:41:06 10° ESE daylight
18 Oct - 18:23:32 10° WSW 18:28:35 24° S 18:33:53 10° SE daylight
18 Oct - 20:17:35 10° SW 20:21:09 15° SSW 20:24:50 10° SSE visible
19 Oct - 13:42:34 10° SSE 13:43:00 10° SSE 13:43:24 10° SSE daylight
19 Oct - 15:30:44 10° SW 15:35:18 21° SSE 15:39:57 10° ESE daylight
19 Oct - 17:22:46 10° SW 17:27:50 25° S 17:33:05 10° SE daylight
19 Oct - 19:16:09 10° WSW 19:20:24 18° SSW 19:24:48 10° SSE visible
20 Oct - 14:30:36 10° SSW 14:34:38 18° SSE 14:38:42 10° ESE daylight
20 Oct - 16:22:07 10° SW 16:27:06 25° S 16:32:13 10° SE daylight
20 Oct - 18:15:03 10° WSW 18:19:39 21° SSW 18:24:26 10° SE daylight
20 Oct - 20:11:40 10° SSW 20:12:07 10° SSW 20:12:33 10° SSW visible
21 Oct - 13:30:48 10° S 13:33:59 14° SSE 13:37:08 10° SE daylight
21 Oct - 15:21:33 10° SW 15:26:23 24° S 15:31:16 10° ESE daylight
21 Oct - 17:14:06 10° WSW 17:18:55 23° S 17:23:53 10° SE daylight
21 Oct - 19:08:23 10° SW 19:11:24 14° SSW 19:14:29 10° S visible
22 Oct - 12:32:07 10° SSE 12:33:20 11° SSE 12:34:33 10° SE daylight
22 Oct - 14:21:07 10° SW 14:25:41 21° S 14:30:15 10° ESE daylight
22 Oct - 16:13:17 10° SW 16:18:12 24° S 16:23:12 10° SE daylight
22 Oct - 18:06:49 10° SW 18:10:42 17° SSW 18:14:41 10° SSE daylight
23 Oct - 13:20:51 10° SSW 13:25:01 18° SSE 13:29:07 10° ESE daylight
23 Oct - 15:12:34 10° SW 15:17:30 25° S 15:22:27 10° SE daylight
23 Oct - 17:05:37 10° WSW 17:10:00 20° SSW 17:14:29 10° SSE daylight
24 Oct - 12:20:53 10° SSW 12:24:20 15° SSE 12:27:43 10° SE daylight
24 Oct - 14:11:54 10° SW 14:16:47 24° S 14:21:37 10° ESE daylight
24 Oct - 16:04:36 10° WSW 16:09:18 23° S 16:14:03 10° SE daylight
24 Oct - 17:59:12 10° SW 18:01:42 12° SSW 18:04:15 10° S daylight
25 Oct - 11:21:38 10° S 11:23:39 11° SSE 11:25:39 10° SE daylight
25 Oct - 13:11:20 10° SW 13:16:05 22° S 13:20:43 10° ESE daylight
25 Oct - 15:03:41 10° SW 15:08:36 24° S 15:13:30 10° SE daylight
25 Oct - 16:57:25 10° SW 17:01:03 16° SSW 17:04:44 10° SSE daylight
26 Oct - 12:10:55 10° SSW 12:15:22 19° SSE 12:19:41 10° ESE daylight
26 Oct - 14:02:50 10° SW 14:07:53 25° S 14:12:51 10° SE daylight
26 Oct - 15:56:05 10° WSW 16:00:23 19° SSW 16:04:41 10° SSE daylight
